STARLINK-1169 (45061 NORAD) Tracking and Keplerian Element Data

This shows tracking and keplerian element data for the satellite.

Feedback or suggestion? Click here.




ElementValue
Catalog45061
NameSTARLINK-1169
Epoch Orbit401
Epoch Day52.91667824
Epoch Year2020
RAAN120.9204
Inclination52.9978
Eccentricity0.0001713
Argument of Perigee56.1139
Mean Anonmoly163.9507
Mean Motion15.50962533
Decay Rate0.00856405
L11 45061U 20006T 20052.91667824 .00856405 00000-0 13418-1 0 9992
L22 45061 52.9978 120.9204 0001713 56.1139 163.9507 15.50962533 4018

Live tracking and technical data element details for STARLINK-1169 (NORAD 45061). STARLINK-1169 can be tracked NOW for your location showing map with azimuth and elevation plus other details from your city location.

Track the satellite on the map from your city or location and see movement details for azimuth, elevation, latitude, longitude, range, height, and movement on the map or in text.







IsCatalogInMostPopularTable: catalog: 45061, numindb: 6
Update: records affected: 1



GetName: 45061 STARLINK-1169

Hit Count: updated at: Mon, 24 Feb 2020 16:58:03 GMT